Find EGRS I

NORAD ID: 729 Int'l Des: 1964-001 Owner: ACE/GIMR Country: US operational
LEOCIRCULAR

現在のビュー

3D地球を読み込み中...

EGRS Iについて

説明を読み込み中...

次回通過

Passes for default location (London). Set your location on the main map for personalized predictions.

高度履歴

Loading altitude history...

軌道要素

1 729U 64001C 26150.83031772 .00000003 00000-0 41488-4 0 9996
2 729 69.9013 330.0543 0011381 101.9984 258.2397 13.95224292174289
Epoch: May 30, 2026 • Age: 9 hours

現在のステータス

高度 907.9 km
速度 7.40 km/s
衛星直下点 31.78°N, 169.07°E
タイプ other

Most Searched